Year,Month,Day,Hour,Minute,Value (Times are PST for temperature in C)
2019,03,21,00,00,9.20
2019,03,21,00,01,9.10
2019,03,21,00,02,9.10
2019,03,21,00,03,9.10
2019,03,21,00,04,9.00
2019,03,21,00,05,9.00
2019,03,21,00,06,9.00
2019,03,21,00,07,9.00
2019,03,21,00,08,9.00
2019,03,21,00,09,9.00
2019,03,21,00,10,8.90
2019,03,21,00,11,8.90
2019,03,21,00,12,8.90
2019,03,21,00,13,8.80
2019,03,21,00,14,8.70
2019,03,21,00,15,8.70
2019,03,21,00,16,8.70
2019,03,21,00,17,8.70
2019,03,21,00,18,8.60
2019,03,21,00,19,8.60
2019,03,21,00,20,8.60
2019,03,21,00,21,8.50
2019,03,21,00,22,8.50
2019,03,21,00,23,8.50
2019,03,21,00,24,8.40
2019,03,21,00,25,8.40
2019,03,21,00,26,8.40
2019,03,21,00,27,8.40
2019,03,21,00,28,8.30
2019,03,21,00,29,8.30
2019,03,21,00,30,8.20
2019,03,21,00,31,8.20
2019,03,21,00,32,8.20
2019,03,21,00,33,8.20
2019,03,21,00,34,8.20
2019,03,21,00,35,8.20
2019,03,21,00,36,8.20
2019,03,21,00,37,8.20
2019,03,21,00,38,8.20
2019,03,21,00,39,8.20
2019,03,21,00,40,8.10
2019,03,21,00,41,8.10
2019,03,21,00,42,8.10
2019,03,21,00,43,8.10
2019,03,21,00,44,8.10
2019,03,21,00,45,8.10
2019,03,21,00,46,8.10
2019,03,21,00,47,8.10
2019,03,21,00,48,8.10
2019,03,21,00,49,8.10
2019,03,21,00,50,8.10
2019,03,21,00,51,8.10
2019,03,21,00,52,8.10
2019,03,21,00,53,8.10
2019,03,21,00,54,8.00
2019,03,21,00,55,8.00
2019,03,21,00,56,8.00
2019,03,21,00,57,8.00
2019,03,21,00,58,8.00
2019,03,21,00,59,7.90
2019,03,21,01,00,7.90
2019,03,21,01,01,7.90
2019,03,21,01,02,7.90
2019,03,21,01,03,7.90
2019,03,21,01,04,7.80
2019,03,21,01,05,7.80
2019,03,21,01,06,7.80
2019,03,21,01,07,7.80
2019,03,21,01,08,7.80
2019,03,21,01,09,7.70
2019,03,21,01,10,7.70
2019,03,21,01,11,7.70
2019,03,21,01,12,7.70
2019,03,21,01,13,7.70
2019,03,21,01,14,7.70
2019,03,21,01,15,7.70
2019,03,21,01,16,7.60
2019,03,21,01,17,7.60
2019,03,21,01,18,7.60
2019,03,21,01,19,7.60
2019,03,21,01,20,7.60
2019,03,21,01,21,7.60
2019,03,21,01,22,7.50
2019,03,21,01,23,7.50
2019,03,21,01,24,7.50
2019,03,21,01,25,7.40
2019,03,21,01,26,7.40
2019,03,21,01,27,7.40
2019,03,21,01,28,7.40
2019,03,21,01,29,7.30
2019,03,21,01,30,7.30
2019,03,21,01,31,7.30
2019,03,21,01,32,7.40
2019,03,21,01,33,7.40
2019,03,21,01,34,7.40
2019,03,21,01,35,7.40
2019,03,21,01,36,7.40
2019,03,21,01,37,7.30
2019,03,21,01,38,7.30
2019,03,21,01,39,7.30
2019,03,21,01,40,7.30
2019,03,21,01,41,7.30
2019,03,21,01,42,7.40
2019,03,21,01,43,7.40
2019,03,21,01,44,7.30
2019,03,21,01,45,7.30
2019,03,21,01,46,7.30
2019,03,21,01,47,7.30
2019,03,21,01,48,7.30
2019,03,21,01,49,7.30
2019,03,21,01,50,7.30
2019,03,21,01,51,7.20
2019,03,21,01,52,7.20
2019,03,21,01,53,7.20
2019,03,21,01,54,7.10
2019,03,21,01,55,7.10
2019,03,21,01,56,7.00
2019,03,21,01,57,7.00
2019,03,21,01,58,7.00
2019,03,21,01,59,7.00
2019,03,21,02,00,7.00
2019,03,21,02,01,6.90
2019,03,21,02,02,6.90
2019,03,21,02,03,6.90
2019,03,21,02,04,6.90
2019,03,21,02,05,6.90
2019,03,21,02,06,6.90
2019,03,21,02,07,6.90
2019,03,21,02,08,6.90
2019,03,21,02,09,6.90
2019,03,21,02,10,6.90
2019,03,21,02,11,6.90
2019,03,21,02,12,6.90
2019,03,21,02,13,6.90
2019,03,21,02,14,6.90
2019,03,21,02,15,6.90
2019,03,21,02,16,6.90
2019,03,21,02,17,6.80
2019,03,21,02,18,6.80
2019,03,21,02,19,6.80
2019,03,21,02,20,6.80
2019,03,21,02,21,6.80
2019,03,21,02,22,6.80
2019,03,21,02,23,6.80
2019,03,21,02,24,6.80
2019,03,21,02,25,6.80
2019,03,21,02,26,6.80
2019,03,21,02,27,6.70
2019,03,21,02,28,6.70
2019,03,21,02,29,6.70
2019,03,21,02,30,6.70
2019,03,21,02,31,6.60
2019,03,21,02,32,6.60
2019,03,21,02,33,6.60
2019,03,21,02,34,6.60
2019,03,21,02,35,6.60
2019,03,21,02,36,6.60
2019,03,21,02,37,6.60
2019,03,21,02,38,6.60
2019,03,21,02,39,6.60
2019,03,21,02,40,6.60
2019,03,21,02,41,6.60
2019,03,21,02,42,6.50
2019,03,21,02,43,6.40
2019,03,21,02,44,6.40
2019,03,21,02,45,6.40
2019,03,21,02,46,6.40
2019,03,21,02,47,6.40
2019,03,21,02,48,6.40
2019,03,21,02,49,6.30
2019,03,21,02,50,6.30
2019,03,21,02,51,6.30
2019,03,21,02,52,6.30
2019,03,21,02,53,6.30
2019,03,21,02,54,6.30
2019,03,21,02,55,6.20
2019,03,21,02,56,6.20
2019,03,21,02,57,6.20
2019,03,21,02,58,6.20
2019,03,21,02,59,6.20
2019,03,21,03,00,6.20
2019,03,21,03,01,6.20
2019,03,21,03,02,6.20
2019,03,21,03,03,6.20
2019,03,21,03,04,6.10
2019,03,21,03,05,6.10
2019,03,21,03,06,6.10
2019,03,21,03,07,6.10
2019,03,21,03,08,6.10
2019,03,21,03,09,6.10
2019,03,21,03,10,6.10
2019,03,21,03,11,6.10
2019,03,21,03,12,6.10
2019,03,21,03,13,6.10
2019,03,21,03,14,6.10
2019,03,21,03,15,6.10
2019,03,21,03,16,6.10
2019,03,21,03,17,6.10
2019,03,21,03,18,6.10
2019,03,21,03,19,6.00
2019,03,21,03,20,6.00
2019,03,21,03,21,6.00
2019,03,21,03,22,6.00
2019,03,21,03,23,6.00
2019,03,21,03,24,6.10
2019,03,21,03,25,6.10
2019,03,21,03,26,6.10
2019,03,21,03,27,6.10
2019,03,21,03,28,6.10
2019,03,21,03,29,6.10
2019,03,21,03,30,6.10
2019,03,21,03,31,6.10
2019,03,21,03,32,6.10
2019,03,21,03,33,6.00
2019,03,21,03,34,6.00
2019,03,21,03,35,6.00
2019,03,21,03,36,6.00
2019,03,21,03,37,6.00
2019,03,21,03,38,6.00
2019,03,21,03,39,5.90
2019,03,21,03,40,5.90
2019,03,21,03,41,6.00
2019,03,21,03,42,6.00
2019,03,21,03,43,6.00
2019,03,21,03,44,6.00
2019,03,21,03,45,6.00
2019,03,21,03,46,6.10
2019,03,21,03,47,6.20
2019,03,21,03,48,6.20
2019,03,21,03,49,6.20
2019,03,21,03,50,6.20
2019,03,21,03,51,6.20
2019,03,21,03,52,6.20
2019,03,21,03,53,6.20
2019,03,21,03,54,6.20
2019,03,21,03,55,6.20
2019,03,21,03,56,6.20
2019,03,21,03,57,6.20
2019,03,21,03,58,6.20
2019,03,21,03,59,6.10
2019,03,21,04,00,6.10
2019,03,21,04,01,6.10
2019,03,21,04,02,6.10
2019,03,21,04,03,6.10
2019,03,21,04,04,6.10
2019,03,21,04,05,6.00
2019,03,21,04,06,6.00
2019,03,21,04,07,6.00
2019,03,21,04,08,6.00
2019,03,21,04,09,5.90
2019,03,21,04,10,5.90
2019,03,21,04,11,5.90
2019,03,21,04,12,5.90
2019,03,21,04,13,5.80
2019,03,21,04,14,5.80
2019,03,21,04,15,5.80
2019,03,21,04,16,5.80
2019,03,21,04,17,5.80
2019,03,21,04,18,5.70
2019,03,21,04,19,5.70
2019,03,21,04,20,5.70
2019,03,21,04,21,5.70
2019,03,21,04,22,5.70
2019,03,21,04,23,5.70
2019,03,21,04,24,5.70
2019,03,21,04,25,5.70
2019,03,21,04,26,5.70
2019,03,21,04,27,5.70
2019,03,21,04,28,5.70
2019,03,21,04,29,5.70
2019,03,21,04,30,5.70
2019,03,21,04,31,5.60
2019,03,21,04,32,5.60
2019,03,21,04,33,5.60
2019,03,21,04,34,5.60
2019,03,21,04,35,5.60
2019,03,21,04,36,5.50
2019,03,21,04,37,5.50
2019,03,21,04,38,5.50
2019,03,21,04,39,5.50
2019,03,21,04,40,5.50
2019,03,21,04,41,5.50
2019,03,21,04,42,5.40
2019,03,21,04,43,5.40
2019,03,21,04,44,5.40
2019,03,21,04,45,5.40
2019,03,21,04,46,5.30
2019,03,21,04,47,5.30
2019,03,21,04,48,5.30
2019,03,21,04,49,5.30
2019,03,21,04,50,5.30
2019,03,21,04,51,5.30
2019,03,21,04,52,5.30
2019,03,21,04,53,5.30
2019,03,21,04,54,5.30
2019,03,21,04,55,5.30
2019,03,21,04,56,5.30
2019,03,21,04,57,5.30
2019,03,21,04,58,5.30
2019,03,21,04,59,5.30
2019,03,21,05,00,5.30
2019,03,21,05,01,5.30
2019,03,21,05,02,5.30
2019,03,21,05,03,5.30
2019,03,21,05,04,5.30
2019,03,21,05,05,5.30
2019,03,21,05,06,5.30
2019,03,21,05,07,5.30
2019,03,21,05,08,5.30
2019,03,21,05,09,5.20
2019,03,21,05,10,5.20
2019,03,21,05,11,5.20
2019,03,21,05,12,5.20
2019,03,21,05,13,5.20
2019,03,21,05,14,5.20
2019,03,21,05,15,5.20
2019,03,21,05,16,5.10
2019,03,21,05,17,5.10
2019,03,21,05,18,5.10
2019,03,21,05,19,5.10
2019,03,21,05,20,5.10
2019,03,21,05,21,5.10
2019,03,21,05,22,5.10
2019,03,21,05,23,5.10
2019,03,21,05,24,5.10
2019,03,21,05,25,5.10
2019,03,21,05,26,5.10
2019,03,21,05,27,5.10
2019,03,21,05,28,5.10
2019,03,21,05,29,5.10
2019,03,21,05,30,5.10
2019,03,21,05,31,5.10
2019,03,21,05,32,5.10
2019,03,21,05,33,5.10
2019,03,21,05,34,5.10
2019,03,21,05,35,5.10
2019,03,21,05,36,5.10
2019,03,21,05,37,5.10
2019,03,21,05,38,5.10
2019,03,21,05,39,5.10
2019,03,21,05,40,5.10
2019,03,21,05,41,5.10
2019,03,21,05,42,5.10
2019,03,21,05,43,5.10
2019,03,21,05,44,5.10
2019,03,21,05,45,5.10
2019,03,21,05,46,5.10
2019,03,21,05,47,5.10
2019,03,21,05,48,5.10
2019,03,21,05,49,5.00
2019,03,21,05,50,4.90
2019,03,21,05,51,4.90
2019,03,21,05,52,4.90
2019,03,21,05,53,4.90
2019,03,21,05,54,4.90
2019,03,21,05,55,4.90
2019,03,21,05,56,4.90
2019,03,21,05,57,4.90
2019,03,21,05,58,4.90
2019,03,21,05,59,4.90
2019,03,21,06,00,4.90
2019,03,21,06,01,4.90
2019,03,21,06,02,4.90
2019,03,21,06,03,4.90
2019,03,21,06,04,4.80
2019,03,21,06,05,4.80
2019,03,21,06,06,4.80
2019,03,21,06,07,4.80
2019,03,21,06,08,4.80
2019,03,21,06,09,4.80
2019,03,21,06,10,4.80
2019,03,21,06,11,4.80
2019,03,21,06,12,4.80
2019,03,21,06,13,4.80
2019,03,21,06,14,4.80
2019,03,21,06,15,4.80
2019,03,21,06,16,4.80
2019,03,21,06,17,4.80
2019,03,21,06,18,4.80
2019,03,21,06,19,4.70
2019,03,21,06,20,4.70
2019,03,21,06,21,4.70
2019,03,21,06,22,4.70
2019,03,21,06,23,4.60
2019,03,21,06,24,4.60
2019,03,21,06,25,4.60
2019,03,21,06,26,4.60
2019,03,21,06,27,4.60
2019,03,21,06,28,4.60
2019,03,21,06,29,4.60
2019,03,21,06,30,4.50
2019,03,21,06,31,4.50
2019,03,21,06,32,4.50
2019,03,21,06,33,4.50
2019,03,21,06,34,4.50
2019,03,21,06,35,4.50
2019,03,21,06,36,4.50
2019,03,21,06,37,4.50
2019,03,21,06,38,4.50
2019,03,21,06,39,4.50
2019,03,21,06,40,4.50
2019,03,21,06,41,4.50
2019,03,21,06,42,4.50
2019,03,21,06,43,4.50
2019,03,21,06,44,4.40
2019,03,21,06,45,4.40
2019,03,21,06,46,4.40
2019,03,21,06,47,4.40
2019,03,21,06,48,4.30
2019,03,21,06,49,4.30
2019,03,21,06,50,4.30
2019,03,21,06,51,4.30
2019,03,21,06,52,4.30
2019,03,21,06,53,4.30
2019,03,21,06,54,4.30
2019,03,21,06,55,4.30
2019,03,21,06,56,4.30
2019,03,21,06,57,4.30
2019,03,21,06,58,4.30
2019,03,21,06,59,4.30
2019,03,21,07,00,4.30
2019,03,21,07,01,4.30
2019,03,21,07,02,4.40
2019,03,21,07,03,4.40
2019,03,21,07,04,4.40
2019,03,21,07,05,4.40
2019,03,21,07,06,4.40
2019,03,21,07,07,4.40
2019,03,21,07,08,4.40
2019,03,21,07,09,4.40
2019,03,21,07,10,4.40
2019,03,21,07,11,4.40
2019,03,21,07,12,4.40
2019,03,21,07,13,4.40
2019,03,21,07,14,4.40
2019,03,21,07,15,4.40
2019,03,21,07,16,4.40
2019,03,21,07,17,4.40
2019,03,21,07,18,4.40
2019,03,21,07,19,4.40
2019,03,21,07,20,4.30
2019,03,21,07,21,4.30
2019,03,21,07,22,4.30
2019,03,21,07,23,4.30
2019,03,21,07,24,4.30
2019,03,21,07,25,4.20
2019,03,21,07,26,4.20
2019,03,21,07,27,4.20
2019,03,21,07,28,4.20
2019,03,21,07,29,4.20
2019,03,21,07,30,4.20
2019,03,21,07,31,4.20
2019,03,21,07,32,4.20
2019,03,21,07,33,4.20
2019,03,21,07,34,4.30
2019,03,21,07,35,4.30
2019,03,21,07,36,4.30
2019,03,21,07,37,4.40
2019,03,21,07,38,4.40
2019,03,21,07,39,4.40
2019,03,21,07,40,4.40
2019,03,21,07,41,4.40
2019,03,21,07,42,4.40
2019,03,21,07,43,4.40
2019,03,21,07,44,4.40
2019,03,21,07,45,4.40
2019,03,21,07,46,4.40
2019,03,21,07,47,4.40
2019,03,21,07,48,4.40
2019,03,21,07,49,4.50
2019,03,21,07,50,4.50
2019,03,21,07,51,4.60
2019,03,21,07,52,4.60
2019,03,21,07,53,4.60
2019,03,21,07,54,4.70
2019,03,21,07,55,4.70
2019,03,21,07,56,4.80
2019,03,21,07,57,4.90
2019,03,21,07,58,4.90
2019,03,21,07,59,5.00
2019,03,21,08,00,5.10
2019,03,21,08,01,5.10
2019,03,21,08,02,5.20
2019,03,21,08,03,5.30
2019,03,21,08,04,5.30
2019,03,21,08,05,5.40
2019,03,21,08,06,5.50
2019,03,21,08,07,5.60
2019,03,21,08,08,5.70
2019,03,21,08,09,5.70
2019,03,21,08,10,5.70
2019,03,21,08,11,5.80
2019,03,21,08,12,5.80
2019,03,21,08,13,5.80
2019,03,21,08,14,5.90
2019,03,21,08,15,5.90
2019,03,21,08,16,6.00
2019,03,21,08,17,6.00
2019,03,21,08,18,6.10
2019,03,21,08,19,6.10
2019,03,21,08,20,6.20
2019,03,21,08,21,6.20
2019,03,21,08,22,6.20
2019,03,21,08,23,6.20
2019,03,21,08,24,6.30
2019,03,21,08,25,6.30
2019,03,21,08,26,6.40
2019,03,21,08,27,6.40
2019,03,21,08,28,6.50
2019,03,21,08,29,6.60
2019,03,21,08,30,6.60
2019,03,21,08,31,6.70
2019,03,21,08,32,6.80
2019,03,21,08,33,6.80
2019,03,21,08,34,6.90
2019,03,21,08,35,7.00
2019,03,21,08,36,7.00
2019,03,21,08,37,7.10
2019,03,21,08,38,7.20
2019,03,21,08,39,7.30
2019,03,21,08,40,7.40
2019,03,21,08,41,7.50
2019,03,21,08,42,7.60
2019,03,21,08,43,7.70
2019,03,21,08,44,7.80
2019,03,21,08,45,7.90
2019,03,21,08,46,8.00
2019,03,21,08,47,8.10
2019,03,21,08,48,8.30
2019,03,21,08,49,8.40
2019,03,21,08,50,8.50
2019,03,21,08,51,8.60
2019,03,21,08,52,8.70
2019,03,21,08,53,8.70
2019,03,21,08,54,8.90
2019,03,21,08,55,8.90
2019,03,21,08,56,9.00
2019,03,21,08,57,9.10
2019,03,21,08,58,9.10
2019,03,21,08,59,9.20
2019,03,21,09,00,9.30
2019,03,21,09,01,9.30
2019,03,21,09,02,9.40
2019,03,21,09,03,9.50
2019,03,21,09,04,9.60
2019,03,21,09,05,9.70
2019,03,21,09,06,9.70
2019,03,21,09,07,9.70
2019,03,21,09,08,9.80
2019,03,21,09,09,9.80
2019,03,21,09,10,9.90
2019,03,21,09,11,10.10
2019,03,21,09,12,10.10
2019,03,21,09,13,10.20
2019,03,21,09,14,10.20
2019,03,21,09,15,10.30
2019,03,21,09,16,10.30
2019,03,21,09,17,10.40
2019,03,21,09,18,10.40
2019,03,21,09,19,10.40
2019,03,21,09,20,10.60
2019,03,21,09,21,10.60
2019,03,21,09,22,10.60
2019,03,21,09,23,10.70
2019,03,21,09,24,10.70
2019,03,21,09,25,10.80
2019,03,21,09,26,10.90
2019,03,21,09,27,10.90
2019,03,21,09,28,11.00
2019,03,21,09,29,11.10
2019,03,21,09,30,11.10
2019,03,21,09,31,11.10
2019,03,21,09,32,11.20
2019,03,21,09,33,11.30
2019,03,21,09,34,11.40
2019,03,21,09,35,11.50
2019,03,21,09,36,11.60
2019,03,21,09,37,11.60
2019,03,21,09,38,11.60
2019,03,21,09,39,11.70
2019,03,21,09,40,11.80
2019,03,21,09,41,11.80
2019,03,21,09,42,11.80
2019,03,21,09,43,11.80
2019,03,21,09,44,11.80
2019,03,21,09,45,11.80
2019,03,21,09,46,11.90
2019,03,21,09,47,11.90
2019,03,21,09,48,11.90
2019,03,21,09,49,12.00
2019,03,21,09,50,12.00
2019,03,21,09,51,12.10
2019,03,21,09,52,12.10
2019,03,21,09,53,12.20
2019,03,21,09,54,12.20
2019,03,21,09,55,12.20
2019,03,21,09,56,12.30
2019,03,21,09,57,12.30
2019,03,21,09,58,12.30
2019,03,21,09,59,12.40
2019,03,21,10,00,12.40
2019,03,21,10,01,12.50
2019,03,21,10,02,12.50
2019,03,21,10,03,12.50
2019,03,21,10,04,12.50
2019,03,21,10,05,12.50
2019,03,21,10,06,12.50
2019,03,21,10,07,12.60
2019,03,21,10,08,12.60
2019,03,21,10,09,12.70
2019,03,21,10,10,12.70
2019,03,21,10,11,12.80
2019,03,21,10,12,12.80
2019,03,21,10,13,12.80
2019,03,21,10,14,12.80
2019,03,21,10,15,12.80
2019,03,21,10,16,12.90
2019,03,21,10,17,13.00
2019,03,21,10,18,13.00
2019,03,21,10,19,13.10
2019,03,21,10,20,13.10
2019,03,21,10,21,13.10
2019,03,21,10,22,13.20
2019,03,21,10,23,13.20
2019,03,21,10,24,13.20
2019,03,21,10,25,13.20
2019,03,21,10,26,13.30
2019,03,21,10,27,13.30
2019,03,21,10,28,13.20
2019,03,21,10,29,13.20
2019,03,21,10,30,13.20
2019,03,21,10,31,13.20
2019,03,21,10,32,13.20
2019,03,21,10,33,13.30
2019,03,21,10,34,13.30
2019,03,21,10,35,13.30
2019,03,21,10,36,13.30
2019,03,21,10,37,13.30
2019,03,21,10,38,13.30
2019,03,21,10,39,13.30
2019,03,21,10,40,13.30
2019,03,21,10,41,13.30
2019,03,21,10,42,13.30
2019,03,21,10,43,13.30
2019,03,21,10,44,13.30
2019,03,21,10,45,13.30
2019,03,21,10,46,13.30
2019,03,21,10,47,13.30
2019,03,21,10,48,13.40
2019,03,21,10,49,13.40
2019,03,21,10,50,13.50
2019,03,21,10,51,13.50
2019,03,21,10,52,13.60
2019,03,21,10,53,13.70
2019,03,21,10,54,13.70
2019,03,21,10,55,13.70
2019,03,21,10,56,13.60
2019,03,21,10,57,13.60
2019,03,21,10,58,13.60
2019,03,21,10,59,13.60
2019,03,21,11,00,13.60
2019,03,21,11,01,13.60
2019,03,21,11,02,13.50
2019,03,21,11,03,13.50
2019,03,21,11,04,13.50
2019,03,21,11,05,13.50
2019,03,21,11,06,13.50
2019,03,21,11,07,13.40
2019,03,21,11,08,13.40
2019,03,21,11,09,13.40
2019,03,21,11,10,13.50
2019,03,21,11,11,13.60
2019,03,21,11,12,13.60
2019,03,21,11,13,13.70
2019,03,21,11,14,13.70
2019,03,21,11,15,13.70
2019,03,21,11,16,13.70
2019,03,21,11,17,13.70
2019,03,21,11,18,13.70
2019,03,21,11,19,13.70
2019,03,21,11,20,13.70
2019,03,21,11,21,13.70
2019,03,21,11,22,13.70
2019,03,21,11,23,13.80
2019,03,21,11,24,13.80
2019,03,21,11,25,13.80
2019,03,21,11,26,13.90
2019,03,21,11,27,13.90
2019,03,21,11,28,13.90
2019,03,21,11,29,14.00
2019,03,21,11,30,14.00
2019,03,21,11,31,14.10
2019,03,21,11,32,14.10
2019,03,21,11,33,14.00
2019,03,21,11,34,14.00
2019,03,21,11,35,14.10
2019,03,21,11,36,14.10
2019,03,21,11,37,14.20
2019,03,21,11,38,14.20
2019,03,21,11,39,14.20
2019,03,21,11,40,14.20
2019,03,21,11,41,14.30
2019,03,21,11,42,14.40
2019,03,21,11,43,14.50
2019,03,21,11,44,14.50
2019,03,21,11,45,14.60
2019,03,21,11,46,14.70
2019,03,21,11,47,14.70
2019,03,21,11,48,14.80
2019,03,21,11,49,14.80
2019,03,21,11,50,14.80
2019,03,21,11,51,14.90
2019,03,21,11,52,14.90
2019,03,21,11,53,14.90
2019,03,21,11,54,14.90
2019,03,21,11,55,14.90
2019,03,21,11,56,15.00
2019,03,21,11,57,15.10
2019,03,21,11,58,15.20
2019,03,21,11,59,15.30
2019,03,21,12,00,15.30
2019,03,21,12,01,15.40
2019,03,21,12,02,15.40
2019,03,21,12,03,15.50
2019,03,21,12,04,15.50
2019,03,21,12,05,15.50
2019,03,21,12,06,15.50
2019,03,21,12,07,15.60
2019,03,21,12,08,15.60
2019,03,21,12,09,15.70
2019,03,21,12,10,15.80
2019,03,21,12,11,15.80
2019,03,21,12,12,15.80
2019,03,21,12,13,15.80
2019,03,21,12,14,15.80
2019,03,21,12,15,15.70
2019,03,21,12,16,15.70
2019,03,21,12,17,15.70
2019,03,21,12,18,15.70
2019,03,21,12,19,15.80
2019,03,21,12,20,15.90
2019,03,21,12,21,16.10
2019,03,21,12,22,16.20
2019,03,21,12,23,16.20
2019,03,21,12,24,16.30
2019,03,21,12,25,16.40
2019,03,21,12,26,16.50
2019,03,21,12,27,16.60
2019,03,21,12,28,16.70
2019,03,21,12,29,16.70
2019,03,21,12,30,16.70
2019,03,21,12,31,16.80
2019,03,21,12,32,16.80
2019,03,21,12,33,16.90
2019,03,21,12,34,17.00
2019,03,21,12,35,17.00
2019,03,21,12,36,17.00
2019,03,21,12,37,17.00
2019,03,21,12,38,17.00
2019,03,21,12,39,17.00
2019,03,21,12,40,17.00
2019,03,21,12,41,17.00
2019,03,21,12,42,17.00
2019,03,21,12,43,17.00
2019,03,21,12,44,16.90
2019,03,21,12,45,16.90
2019,03,21,12,46,16.90
2019,03,21,12,47,16.80
2019,03,21,12,48,16.80
2019,03,21,12,49,16.90
2019,03,21,12,50,16.90
2019,03,21,12,51,16.90
2019,03,21,12,52,16.80
2019,03,21,12,53,16.80
2019,03,21,12,54,16.80
2019,03,21,12,55,16.80
2019,03,21,12,56,16.80
2019,03,21,12,57,16.70
2019,03,21,12,58,16.70
2019,03,21,12,59,16.70
2019,03,21,13,00,16.70
2019,03,21,13,01,16.60
2019,03,21,13,02,16.60
2019,03,21,13,03,16.40
2019,03,21,13,04,16.30
2019,03,21,13,05,16.20
2019,03,21,13,06,16.10
2019,03,21,13,07,16.10
2019,03,21,13,08,16.10
2019,03,21,13,09,16.10
2019,03,21,13,10,16.10
2019,03,21,13,11,16.10
2019,03,21,13,12,16.10
2019,03,21,13,13,16.10
2019,03,21,13,14,16.10
2019,03,21,13,15,16.10
2019,03,21,13,16,16.10
2019,03,21,13,17,16.10
2019,03,21,13,18,16.10
2019,03,21,13,19,16.10
2019,03,21,13,20,15.90
2019,03,21,13,21,15.90
2019,03,21,13,22,15.90
2019,03,21,13,23,15.90
2019,03,21,13,24,15.80
2019,03,21,13,25,15.80
2019,03,21,13,26,15.80
2019,03,21,13,27,15.80
2019,03,21,13,28,15.90
2019,03,21,13,29,15.90
2019,03,21,13,30,16.10
2019,03,21,13,31,16.10
2019,03,21,13,32,16.10
2019,03,21,13,33,16.20
2019,03,21,13,34,16.20
2019,03,21,13,35,16.20
2019,03,21,13,36,16.30
2019,03,21,13,37,16.30
2019,03,21,13,38,16.30
2019,03,21,13,39,16.40
2019,03,21,13,40,16.40
2019,03,21,13,41,16.40
2019,03,21,13,42,16.40
2019,03,21,13,43,16.40
2019,03,21,13,44,16.40
2019,03,21,13,45,16.50
2019,03,21,13,46,16.60
2019,03,21,13,47,16.70
2019,03,21,13,48,16.70
2019,03,21,13,49,16.70
2019,03,21,13,50,16.70
2019,03,21,13,51,16.70
2019,03,21,13,52,16.70
2019,03,21,13,53,16.60
2019,03,21,13,54,16.60
2019,03,21,13,55,16.60
2019,03,21,13,56,16.60
2019,03,21,13,57,16.60
2019,03,21,13,58,16.60
2019,03,21,13,59,16.60
2019,03,21,14,00,16.70
2019,03,21,14,01,16.70
2019,03,21,14,02,16.70
2019,03,21,14,03,16.70
2019,03,21,14,04,16.70
2019,03,21,14,05,16.70
2019,03,21,14,06,16.70
2019,03,21,14,07,16.60
2019,03,21,14,08,16.60
2019,03,21,14,09,16.60
2019,03,21,14,10,16.60
2019,03,21,14,11,16.60
2019,03,21,14,12,16.70
2019,03,21,14,13,16.70
2019,03,21,14,14,16.70
2019,03,21,14,15,16.70
2019,03,21,14,16,16.80
2019,03,21,14,17,16.90
2019,03,21,14,18,17.00
2019,03,21,14,19,17.20
2019,03,21,14,20,17.20
2019,03,21,14,21,17.30
2019,03,21,14,22,17.30
2019,03,21,14,23,17.30
2019,03,21,14,24,17.30
2019,03,21,14,25,17.30
2019,03,21,14,26,17.30
2019,03,21,14,27,17.40
2019,03,21,14,28,17.40
2019,03,21,14,29,17.40
2019,03,21,14,30,17.50
2019,03,21,14,31,17.50
2019,03,21,14,32,17.60
2019,03,21,14,33,17.60
2019,03,21,14,34,17.40
2019,03,21,14,35,17.30
2019,03,21,14,36,17.30
2019,03,21,14,37,17.20
2019,03,21,14,38,17.20
2019,03,21,14,39,17.20
2019,03,21,14,40,17.20
2019,03,21,14,41,17.20
2019,03,21,14,42,17.20
2019,03,21,14,43,17.30
2019,03,21,14,44,17.40
2019,03,21,14,45,17.50
2019,03,21,14,46,17.60
2019,03,21,14,47,17.50
2019,03,21,14,48,17.50
2019,03,21,14,49,17.60
2019,03,21,14,50,17.80
2019,03,21,14,51,17.80
2019,03,21,14,52,17.90
2019,03,21,14,53,17.90
2019,03,21,14,54,18.00
2019,03,21,14,55,18.10
2019,03,21,14,56,18.10
2019,03,21,14,57,18.10
2019,03,21,14,58,18.10
2019,03,21,14,59,18.10
2019,03,21,15,00,18.00
2019,03,21,15,01,17.90
2019,03,21,15,02,17.90
2019,03,21,15,03,17.80
2019,03,21,15,04,17.70
2019,03,21,15,05,17.70
2019,03,21,15,06,17.60
2019,03,21,15,07,17.50
2019,03,21,15,08,17.40
2019,03,21,15,09,17.30
2019,03,21,15,10,17.20
2019,03,21,15,11,17.10
2019,03,21,15,12,17.10
2019,03,21,15,13,17.10
2019,03,21,15,14,17.10
2019,03,21,15,15,17.10
2019,03,21,15,16,17.10
2019,03,21,15,17,17.10
2019,03,21,15,18,17.10
2019,03,21,15,19,17.20
2019,03,21,15,20,17.30
2019,03,21,15,21,17.30
2019,03,21,15,22,17.30
2019,03,21,15,23,17.30
2019,03,21,15,24,17.30
2019,03,21,15,25,17.20
2019,03,21,15,26,17.20
2019,03,21,15,27,17.20
2019,03,21,15,28,17.10
2019,03,21,15,29,17.10
2019,03,21,15,30,17.00
2019,03,21,15,31,17.00
2019,03,21,15,32,17.00
2019,03,21,15,33,17.00
2019,03,21,15,34,16.90
2019,03,21,15,35,16.90
2019,03,21,15,36,16.90
2019,03,21,15,37,16.90
2019,03,21,15,38,17.00
2019,03,21,15,39,17.00
2019,03,21,15,40,17.10
2019,03,21,15,41,17.20
2019,03,21,15,42,17.20
2019,03,21,15,43,17.20
2019,03,21,15,44,17.20
2019,03,21,15,45,17.20
2019,03,21,15,46,17.20
2019,03,21,15,47,17.10
2019,03,21,15,48,17.10
2019,03,21,15,49,17.10
2019,03,21,15,50,17.10
2019,03,21,15,51,17.00
2019,03,21,15,52,17.00
2019,03,21,15,53,16.90
2019,03,21,15,54,16.90
2019,03,21,15,55,16.90
2019,03,21,15,56,16.90
2019,03,21,15,57,16.90
2019,03,21,15,58,17.00
2019,03,21,15,59,17.00
2019,03,21,16,00,17.10
2019,03,21,16,01,17.10
2019,03,21,16,02,17.10
2019,03,21,16,03,17.10
2019,03,21,16,04,17.10
2019,03,21,16,05,17.10
2019,03,21,16,06,17.10
2019,03,21,16,07,17.20
2019,03,21,16,08,17.20
2019,03,21,16,09,17.30
2019,03,21,16,10,17.30
2019,03,21,16,11,17.30
2019,03,21,16,12,17.30
2019,03,21,16,13,17.30
2019,03,21,16,14,17.30
2019,03,21,16,15,17.30
2019,03,21,16,16,17.30
2019,03,21,16,17,17.30
2019,03,21,16,18,17.30
2019,03,21,16,19,17.20
2019,03,21,16,20,17.20
2019,03,21,16,21,17.10
2019,03,21,16,22,17.10
2019,03,21,16,23,17.00
2019,03,21,16,24,17.00
2019,03,21,16,25,16.90
2019,03,21,16,26,16.90
2019,03,21,16,27,16.90
2019,03,21,16,28,17.00
2019,03,21,16,29,17.00
2019,03,21,16,30,16.90
2019,03,21,16,31,16.90
2019,03,21,16,32,16.90
2019,03,21,16,33,16.90
2019,03,21,16,34,16.90
2019,03,21,16,35,16.90
2019,03,21,16,36,16.90
2019,03,21,16,37,16.90
2019,03,21,16,38,16.90
2019,03,21,16,39,16.90
2019,03,21,16,40,16.90
2019,03,21,16,41,16.90
2019,03,21,16,42,16.90
2019,03,21,16,43,16.90
2019,03,21,16,44,16.80
2019,03,21,16,45,16.80
2019,03,21,16,46,16.70
2019,03,21,16,47,16.70
2019,03,21,16,48,16.70
2019,03,21,16,49,16.70
2019,03,21,16,50,16.60
2019,03,21,16,51,16.60
2019,03,21,16,52,16.60
2019,03,21,16,53,16.50
2019,03,21,16,54,16.40
2019,03,21,16,55,16.30
2019,03,21,16,56,16.30
2019,03,21,16,57,16.30
2019,03,21,16,58,16.30
2019,03,21,16,59,16.30
2019,03,21,17,00,16.30
2019,03,21,17,01,16.30
2019,03,21,17,02,16.30
2019,03,21,17,03,16.30
2019,03,21,17,04,16.30
2019,03,21,17,05,16.20
2019,03,21,17,06,16.20
2019,03,21,17,07,16.10
2019,03,21,17,08,16.10
2019,03,21,17,09,16.10
2019,03,21,17,10,16.10
2019,03,21,17,11,16.00
2019,03,21,17,12,15.90
2019,03,21,17,13,15.90
2019,03,21,17,14,15.80
2019,03,21,17,15,15.80
2019,03,21,17,16,15.80
2019,03,21,17,17,15.80
2019,03,21,17,18,15.80
2019,03,21,17,19,15.70
2019,03,21,17,20,15.70
2019,03,21,17,21,15.60
2019,03,21,17,22,15.60
2019,03,21,17,23,15.50
2019,03,21,17,24,15.50
2019,03,21,17,25,15.40
2019,03,21,17,26,15.40
2019,03,21,17,27,15.30
2019,03,21,17,28,15.30
2019,03,21,17,29,15.30
2019,03,21,17,30,15.20
2019,03,21,17,31,15.10
2019,03,21,17,32,15.10
2019,03,21,17,33,15.10
2019,03,21,17,34,15.00
2019,03,21,17,35,15.00
2019,03,21,17,36,14.90
2019,03,21,17,37,14.90
2019,03,21,17,38,14.80
2019,03,21,17,39,14.80
2019,03,21,17,40,14.80
2019,03,21,17,41,14.70
2019,03,21,17,42,14.60
2019,03,21,17,43,14.60